EFW2607 LIBD-EGKK

Flight info

Callsign EFW2607
Flight time 2h 23m
Altitude 34000
Route PISIP L612 VIE DCT LANLI DCT RESIA DCT ELMUR DCT RIPUS DCT DITON DCT HOC DCT LUL DCT RLP DCT ROTSI DCT KOTUN DCT NINAL DCT KESAX DCT KUNAV
Aircraft A321/M-SDE3FGIJ1KRWXY/SB1

Departure

Time 2026-05-08 12:18
Airport Bari Karol Wojtyła International Airport (LIBD)

Arrival

Time 2026-05-08 14:41
Airport London Gatwick Airport (EGKK)
Time Latitude Longitude Altitude Speed Heading
2026-05-08 12:00 41.13500 16.76235 196 ft 0 kts 160°
2026-05-08 12:07 41.13505 16.76233 196 ft 2 kts 160°
2026-05-08 12:07 41.13519 16.76226 196 ft 2 kts 160°
2026-05-08 12:07 41.13535 16.76222 196 ft 2 kts 183°
2026-05-08 12:08 41.13549 16.76225 196 ft 2 kts 198°
2026-05-08 12:08 41.13562 16.76234 196 ft 2 kts 216°
2026-05-08 12:08 41.13573 16.76246 196 ft 2 kts 232°
2026-05-08 12:08 41.13580 16.76261 196 ft 0 kts 248°
2026-05-08 12:09 41.13582 16.76270 196 ft 0 kts 250°
2026-05-08 12:12 41.13579 16.76259 196 ft 2 kts 250°
2026-05-08 12:12 41.13573 16.76235 196 ft 3 kts 249°
2026-05-08 12:12 41.13562 16.76199 196 ft 4 kts 248°
2026-05-08 12:13 41.13552 16.76150 196 ft 6 kts 265°
2026-05-08 12:13 41.13570 16.76097 196 ft 7 kts 317°
2026-05-08 12:13 41.13611 16.76054 196 ft 7 kts 322°
2026-05-08 12:13 41.13638 16.75992 196 ft 8 kts 272°
2026-05-08 12:14 41.13621 16.75907 196 ft 12 kts 250°
2026-05-08 12:14 41.13584 16.75777 196 ft 17 kts 249°
2026-05-08 12:14 41.13535 16.75603 196 ft 22 kts 249°
2026-05-08 12:14 41.13474 16.75389 196 ft 26 kts 249°
2026-05-08 12:15 41.13410 16.75163 196 ft 25 kts 249°
2026-05-08 12:15 41.13349 16.74948 196 ft 24 kts 250°
2026-05-08 12:15 41.13291 16.74744 196 ft 23 kts 249°
2026-05-08 12:15 41.13235 16.74549 196 ft 22 kts 250°
2026-05-08 12:16 41.13182 16.74359 196 ft 21 kts 250°
2026-05-08 12:16 41.13164 16.74261 196 ft 8 kts 283°
2026-05-08 12:16 41.13192 16.74188 196 ft 9 kts 301°
2026-05-08 12:16 41.13231 16.74122 196 ft 8 kts 326°
2026-05-08 12:17 41.13276 16.74100 196 ft 4 kts 12°
2026-05-08 12:17 41.13306 16.74132 196 ft 5 kts 60°
2026-05-08 12:17 41.13325 16.74199 196 ft 16 kts 69°
2026-05-08 12:17 41.13457 16.74666 196 ft 92 kts 70°
2026-05-08 12:18 41.13764 16.75753 199 ft 155 kts 69°
2026-05-08 12:18 41.14156 16.77152 832 ft 161 kts 70°
2026-05-08 12:18 41.14528 16.78488 1615 ft 155 kts 70°
2026-05-08 12:18 41.14911 16.79847 1949 ft 163 kts 71°
2026-05-08 12:19 41.15331 16.81296 2202 ft 175 kts 71°
2026-05-08 12:19 41.15786 16.82868 2438 ft 191 kts 71°
2026-05-08 12:19 41.16283 16.84586 2729 ft 207 kts 72°
2026-05-08 12:19 41.16816 16.86423 2984 ft 225 kts 72°
2026-05-08 12:20 41.17403 16.88451 3310 ft 243 kts 71°
2026-05-08 12:20 41.18149 16.90511 3897 ft 252 kts 55°
2026-05-08 12:20 41.19471 16.92007 4535 ft 259 kts 27°
2026-05-08 12:20 41.21268 16.92502 5048 ft 273 kts 357°
2026-05-08 12:21 41.23130 16.91958 5719 ft 278 kts 345°
2026-05-08 12:21 41.24957 16.91231 6439 ft 280 kts 345°
2026-05-08 12:21 41.26820 16.90496 7138 ft 283 kts 345°
2026-05-08 12:21 41.28710 16.89775 7818 ft 286 kts 346°
2026-05-08 12:22 41.30628 16.89061 8482 ft 289 kts 346°
2026-05-08 12:22 41.32576 16.88346 9146 ft 292 kts 346°
2026-05-08 12:22 41.34515 16.87638 9773 ft 295 kts 345°
2026-05-08 12:22 41.36484 16.86878 10337 ft 300 kts 339°
2026-05-08 12:23 41.38370 16.85554 10625 ft 314 kts 322°
2026-05-08 12:23 41.39986 16.83544 10903 ft 327 kts 311°
2026-05-08 12:23 41.41517 16.81221 11172 ft 342 kts 309°
2026-05-08 12:23 41.43090 16.78770 11501 ft 354 kts 309°
2026-05-08 12:24 41.44696 16.76291 12073 ft 357 kts 309°
2026-05-08 12:24 41.46341 16.73780 12713 ft 359 kts 309°
2026-05-08 12:24 41.47980 16.71288 13310 ft 361 kts 309°
2026-05-08 12:24 41.49638 16.68778 13895 ft 363 kts 310°
2026-05-08 12:25 41.51292 16.66274 14465 ft 365 kts 310°
2026-05-08 12:25 41.52965 16.63743 15030 ft 367 kts 310°
2026-05-08 12:25 41.54656 16.61177 15587 ft 369 kts 310°
2026-05-08 12:25 41.56358 16.58587 16134 ft 371 kts 310°
2026-05-08 12:26 41.58058 16.55998 16670 ft 373 kts 310°
2026-05-08 12:26 41.59768 16.53390 17194 ft 375 kts 310°
2026-05-08 12:26 41.61477 16.50781 17700 ft 377 kts 310°
2026-05-08 12:26 41.63208 16.48139 18211 ft 379 kts 310°
2026-05-08 12:27 41.64929 16.45507 18684 ft 381 kts 310°
2026-05-08 12:27 41.66674 16.42839 19159 ft 383 kts 310°
2026-05-08 12:27 41.68423 16.40160 19616 ft 385 kts 310°
2026-05-08 12:27 41.70195 16.37444 20061 ft 387 kts 311°
2026-05-08 12:28 41.71969 16.34722 20496 ft 389 kts 310°
2026-05-08 12:28 41.73749 16.31990 20935 ft 391 kts 310°
2026-05-08 12:28 41.75526 16.29258 21347 ft 393 kts 310°
2026-05-08 12:28 41.77319 16.26500 21757 ft 395 kts 310°
2026-05-08 12:29 41.79124 16.23721 22159 ft 397 kts 310°
2026-05-08 12:29 41.80942 16.20919 22556 ft 399 kts 310°
2026-05-08 12:29 41.82748 16.18131 22934 ft 401 kts 310°
2026-05-08 12:29 41.84573 16.15313 23301 ft 403 kts 310°
2026-05-08 12:30 41.86425 16.12450 23671 ft 405 kts 310°
2026-05-08 12:30 41.88264 16.09603 24026 ft 406 kts 310°
2026-05-08 12:30 41.90110 16.06745 24365 ft 408 kts 310°
2026-05-08 12:30 41.92014 16.03969 24657 ft 411 kts 313°
2026-05-08 12:31 41.94049 16.01213 24938 ft 415 kts 314°
2026-05-08 12:31 41.96077 15.98505 25214 ft 417 kts 314°
2026-05-08 12:31 41.98166 15.95718 25484 ft 421 kts 314°
2026-05-08 12:31 42.00233 15.92957 25752 ft 423 kts 314°
2026-05-08 12:32 42.02302 15.90189 26017 ft 426 kts 314°
2026-05-08 12:32 42.04402 15.87373 26279 ft 429 kts 314°
2026-05-08 12:32 42.06524 15.84525 26534 ft 431 kts 314°
2026-05-08 12:32 42.08653 15.81663 26782 ft 434 kts 314°
2026-05-08 12:33 42.10789 15.78787 27025 ft 437 kts 314°
2026-05-08 12:33 42.12933 15.75900 27266 ft 439 kts 314°
2026-05-08 12:33 42.15074 15.73013 27501 ft 442 kts 313°
2026-05-08 12:33 42.17239 15.70091 27733 ft 444 kts 313°
2026-05-08 12:34 42.19422 15.67139 27962 ft 446 kts 313°
2026-05-08 12:34 42.21627 15.64157 28184 ft 448 kts 313°
2026-05-08 12:34 42.23813 15.61197 28398 ft 451 kts 313°
2026-05-08 12:34 42.26048 15.58167 28617 ft 453 kts 313°
2026-05-08 12:35 42.28236 15.55197 28853 ft 454 kts 313°
2026-05-08 12:35 42.30479 15.52149 29159 ft 454 kts 313°
2026-05-08 12:35 42.32677 15.49161 29462 ft 453 kts 313°
2026-05-08 12:35 42.34887 15.46153 29743 ft 453 kts 313°
2026-05-08 12:36 42.37099 15.43140 30006 ft 453 kts 313°
2026-05-08 12:36 42.39333 15.40091 30273 ft 454 kts 313°
2026-05-08 12:36 42.41534 15.37082 30547 ft 453 kts 313°
2026-05-08 12:36 42.43726 15.34084 30824 ft 453 kts 312°
2026-05-08 12:37 42.45946 15.31044 31107 ft 452 kts 312°
2026-05-08 12:37 42.48137 15.28042 31372 ft 452 kts 312°
2026-05-08 12:37 42.50349 15.25007 31631 ft 451 kts 312°
2026-05-08 12:37 42.52542 15.21996 31887 ft 451 kts 312°
2026-05-08 12:38 42.54744 15.18967 32144 ft 450 kts 312°
2026-05-08 12:38 42.56933 15.15957 32369 ft 451 kts 311°
2026-05-08 12:38 42.59114 15.12951 32559 ft 452 kts 311°
2026-05-08 12:38 42.61308 15.09926 32743 ft 453 kts 311°
2026-05-08 12:39 42.63532 15.06856 32924 ft 454 kts 311°
2026-05-08 12:39 42.65720 15.03832 33107 ft 454 kts 311°
2026-05-08 12:39 42.67926 15.00778 33292 ft 455 kts 311°
2026-05-08 12:39 42.70165 14.97679 33468 ft 456 kts 311°
2026-05-08 12:40 42.72369 14.94623 33639 ft 456 kts 311°
2026-05-08 12:40 42.74598 14.91528 33813 ft 457 kts 311°
2026-05-08 12:40 42.76794 14.88478 33972 ft 458 kts 311°
2026-05-08 12:40 42.79018 14.85383 34002 ft 459 kts 311°
2026-05-08 12:41 42.83468 14.79184 34007 ft 459 kts 311°
2026-05-08 12:41 42.87895 14.73002 34008 ft 458 kts 311°
2026-05-08 12:42 42.92334 14.66790 34008 ft 458 kts 311°
2026-05-08 12:42 42.96754 14.60591 34008 ft 458 kts 311°
2026-05-08 12:43 43.01176 14.54375 34008 ft 458 kts 311°
2026-05-08 12:43 43.05625 14.48109 34008 ft 458 kts 311°
2026-05-08 12:44 43.10011 14.41915 34008 ft 458 kts 311°
2026-05-08 12:44 43.14437 14.35654 34008 ft 458 kts 310°
2026-05-08 12:45 43.18846 14.29403 34009 ft 457 kts 310°
2026-05-08 12:45 43.23249 14.23145 34008 ft 457 kts 310°
2026-05-08 12:46 43.27635 14.16896 34008 ft 457 kts 310°
2026-05-08 12:46 43.32030 14.10623 34009 ft 458 kts 309°
2026-05-08 12:47 43.36442 14.04310 34013 ft 458 kts 309°
2026-05-08 12:47 43.40822 13.98031 34022 ft 456 kts 309°
2026-05-08 12:48 43.45179 13.91773 34025 ft 454 kts 309°
2026-05-08 12:48 43.49539 13.85489 34031 ft 454 kts 309°
2026-05-08 12:49 43.53863 13.79244 34034 ft 454 kts 309°
2026-05-08 12:49 43.58218 13.72945 34036 ft 454 kts 309°
2026-05-08 12:50 43.62558 13.66653 34037 ft 454 kts 309°
2026-05-08 12:50 43.66911 13.60325 34037 ft 454 kts 309°
2026-05-08 12:51 43.73400 13.50868 34037 ft 453 kts 309°
2026-05-08 12:52 43.77716 13.44560 34037 ft 453 kts 309°
2026-05-08 12:52 43.84183 13.35081 34036 ft 452 kts 309°
2026-05-08 12:53 43.88455 13.28800 34037 ft 451 kts 308°
2026-05-08 12:53 43.92730 13.22500 34038 ft 450 kts 308°
2026-05-08 12:54 43.97202 13.16367 34037 ft 452 kts 314°
2026-05-08 12:54 44.01950 13.10741 34034 ft 455 kts 315°
2026-05-08 12:55 44.06793 13.05072 34036 ft 456 kts 315°
2026-05-08 12:55 44.11641 12.99375 34035 ft 456 kts 314°
2026-05-08 12:56 44.16439 12.93712 34037 ft 455 kts 314°
2026-05-08 12:56 44.21238 12.88033 34037 ft 455 kts 314°
2026-05-08 12:57 44.26049 12.82327 34037 ft 455 kts 314°
2026-05-08 12:57 44.30856 12.76613 34037 ft 454 kts 314°
2026-05-08 12:58 44.35652 12.70898 34037 ft 454 kts 314°
2026-05-08 12:58 44.40415 12.65211 34037 ft 454 kts 314°
2026-05-08 12:59 44.45190 12.59497 34037 ft 454 kts 314°
2026-05-08 12:59 44.50000 12.53727 34037 ft 454 kts 314°
2026-05-08 13:00 44.54755 12.48010 34037 ft 454 kts 314°
2026-05-08 13:00 44.59544 12.42240 34037 ft 453 kts 314°
2026-05-08 13:01 44.64301 12.36494 34037 ft 453 kts 314°
2026-05-08 13:01 44.69038 12.30761 34037 ft 453 kts 314°
2026-05-08 13:02 44.73803 12.24982 34037 ft 453 kts 313°
2026-05-08 13:02 44.78544 12.19218 34037 ft 453 kts 313°
2026-05-08 13:03 44.83300 12.13421 34037 ft 453 kts 313°
2026-05-08 13:03 44.88043 12.07629 34037 ft 453 kts 313°
2026-05-08 13:04 44.92780 12.01829 34037 ft 453 kts 313°
2026-05-08 13:04 44.97506 11.96028 34037 ft 451 kts 313°
2026-05-08 13:05 45.02240 11.90208 34037 ft 451 kts 313°
2026-05-08 13:05 45.06958 11.84395 34037 ft 451 kts 313°
2026-05-08 13:06 45.11646 11.78604 34035 ft 451 kts 313°
2026-05-08 13:06 45.16359 11.72769 34037 ft 451 kts 313°
2026-05-08 13:07 45.21067 11.66926 34037 ft 451 kts 313°
2026-05-08 13:07 45.25771 11.61077 34037 ft 451 kts 313°
2026-05-08 13:08 45.30487 11.55197 34037 ft 451 kts 313°
2026-05-08 13:08 45.35165 11.49351 34037 ft 451 kts 313°
2026-05-08 13:09 45.39869 11.43459 34037 ft 451 kts 313°
2026-05-08 13:09 45.44568 11.37559 34037 ft 451 kts 313°
2026-05-08 13:10 45.49256 11.31660 34040 ft 450 kts 313°
2026-05-08 13:10 45.53944 11.25748 34048 ft 450 kts 313°
2026-05-08 13:11 45.58613 11.19848 34060 ft 450 kts 313°
2026-05-08 13:11 45.63291 11.13919 34074 ft 449 kts 313°
2026-05-08 13:12 45.67950 11.08004 34083 ft 450 kts 313°
2026-05-08 13:12 45.72626 11.02051 34088 ft 450 kts 313°
2026-05-08 13:13 45.77299 10.96090 34089 ft 450 kts 313°
2026-05-08 13:13 45.81942 10.90151 34085 ft 450 kts 313°
2026-05-08 13:14 45.86599 10.84183 34080 ft 450 kts 313°
2026-05-08 13:14 45.91249 10.78208 34074 ft 450 kts 313°
2026-05-08 13:15 45.95915 10.72199 34069 ft 451 kts 313°
2026-05-08 13:15 46.00551 10.66215 34066 ft 450 kts 313°
2026-05-08 13:16 46.05205 10.60195 34065 ft 450 kts 313°
2026-05-08 13:16 46.09846 10.54175 34064 ft 450 kts 313°
2026-05-08 13:17 46.14477 10.48153 34066 ft 450 kts 313°
2026-05-08 13:17 46.19127 10.42096 34072 ft 450 kts 313°
2026-05-08 13:18 46.23747 10.36061 34078 ft 451 kts 313°
2026-05-08 13:18 46.28400 10.29966 34085 ft 450 kts 313°
2026-05-08 13:19 46.33002 10.23927 34089 ft 450 kts 313°
2026-05-08 13:19 46.37632 10.17835 34091 ft 450 kts 313°
2026-05-08 13:20 46.42250 10.11743 34091 ft 450 kts 313°
2026-05-08 13:20 46.46870 10.05586 34091 ft 448 kts 310°
2026-05-08 13:21 46.51111 9.99033 34091 ft 445 kts 307°
2026-05-08 13:21 46.55176 9.92325 34091 ft 445 kts 306°
2026-05-08 13:22 46.59282 9.85536 34091 ft 446 kts 307°
2026-05-08 13:22 46.63363 9.78786 34091 ft 445 kts 306°
2026-05-08 13:23 46.67423 9.72056 34091 ft 445 kts 306°
2026-05-08 13:23 46.71517 9.65254 34091 ft 444 kts 306°
2026-05-08 13:24 46.75557 9.58525 34090 ft 444 kts 306°
2026-05-08 13:24 46.79621 9.51740 34084 ft 444 kts 306°
2026-05-08 13:25 46.83666 9.44971 34074 ft 443 kts 307°
2026-05-08 13:25 46.87688 9.38222 34061 ft 443 kts 307°
2026-05-08 13:26 46.91724 9.31432 34051 ft 442 kts 306°
2026-05-08 13:26 46.95756 9.24634 34043 ft 442 kts 306°
2026-05-08 13:27 46.99772 9.17844 34040 ft 442 kts 306°
2026-05-08 13:27 47.03759 9.11086 34039 ft 442 kts 306°
2026-05-08 13:28 47.07764 9.04281 34037 ft 441 kts 306°
2026-05-08 13:28 47.11657 8.97378 34031 ft 439 kts 302°
2026-05-08 13:29 47.15020 8.89980 34025 ft 435 kts 296°
2026-05-08 13:29 47.17768 8.82145 34019 ft 432 kts 290°
2026-05-08 13:30 47.19969 8.73969 34014 ft 430 kts 287°
2026-05-08 13:30 47.22060 8.65713 34011 ft 431 kts 287°
2026-05-08 13:31 47.24132 8.57525 34011 ft 431 kts 287°
2026-05-08 13:31 47.26220 8.49269 34011 ft 431 kts 287°
2026-05-08 13:32 47.28305 8.40997 34010 ft 431 kts 287°
2026-05-08 13:32 47.30381 8.32729 34011 ft 431 kts 286°
2026-05-08 13:33 47.32438 8.24484 34010 ft 431 kts 286°
2026-05-08 13:33 47.34495 8.16201 34010 ft 431 kts 286°
2026-05-08 13:34 47.36543 8.07926 34010 ft 431 kts 286°
2026-05-08 13:34 47.38590 7.99615 34010 ft 432 kts 287°
2026-05-08 13:35 47.40626 7.91313 34010 ft 431 kts 287°
2026-05-08 13:35 47.42661 7.83002 34010 ft 431 kts 287°
2026-05-08 13:36 47.44678 7.74721 34010 ft 431 kts 287°
2026-05-08 13:36 47.46626 7.66357 34010 ft 429 kts 284°
2026-05-08 13:37 47.48132 7.57865 34010 ft 428 kts 282°
2026-05-08 13:37 47.49552 7.49347 34010 ft 428 kts 282°
2026-05-08 13:38 47.50970 7.40800 34010 ft 428 kts 282°
2026-05-08 13:38 47.52380 7.32279 34011 ft 428 kts 281°
2026-05-08 13:39 47.53783 7.23762 34010 ft 427 kts 281°
2026-05-08 13:39 47.55180 7.15242 34010 ft 427 kts 281°
2026-05-08 13:40 47.56565 7.06748 34010 ft 426 kts 281°
2026-05-08 13:40 47.57948 6.98224 34010 ft 426 kts 282°
2026-05-08 13:41 47.59320 6.89725 34010 ft 426 kts 282°
2026-05-08 13:41 47.60693 6.81179 34010 ft 426 kts 282°
2026-05-08 13:42 47.62050 6.72687 34010 ft 425 kts 282°
2026-05-08 13:42 47.63405 6.64168 34010 ft 425 kts 282°
2026-05-08 13:43 47.64750 6.55658 34010 ft 425 kts 282°
2026-05-08 13:43 47.66093 6.47125 34010 ft 425 kts 282°
2026-05-08 13:44 47.67420 6.38637 34010 ft 425 kts 282°
2026-05-08 13:44 47.68782 6.30114 34010 ft 425 kts 284°
2026-05-08 13:45 47.70496 6.21737 34010 ft 426 kts 286°
2026-05-08 13:45 47.72283 6.13358 34010 ft 426 kts 286°
2026-05-08 13:46 47.74056 6.05004 34010 ft 426 kts 286°
2026-05-08 13:46 47.75819 5.96643 34010 ft 426 kts 286°
2026-05-08 13:47 47.77584 5.88239 34010 ft 425 kts 286°
2026-05-08 13:47 47.79326 5.79910 34010 ft 425 kts 286°
2026-05-08 13:48 47.81071 5.71529 34010 ft 425 kts 286°
2026-05-08 13:48 47.82813 5.63123 34010 ft 425 kts 286°
2026-05-08 13:49 47.84542 5.54744 34010 ft 424 kts 286°
2026-05-08 13:49 47.86251 5.46425 34011 ft 423 kts 287°
2026-05-08 13:50 47.87977 5.38018 34011 ft 423 kts 288°
2026-05-08 13:50 47.90116 5.29905 34015 ft 423 kts 294°
2026-05-08 13:51 47.92964 5.22291 34018 ft 423 kts 301°
2026-05-08 13:51 47.96497 5.15274 34023 ft 424 kts 309°
2026-05-08 13:52 48.00418 5.08746 34027 ft 424 kts 310°
2026-05-08 13:52 48.04398 5.02194 34031 ft 428 kts 310°
2026-05-08 13:53 48.08382 4.95612 34035 ft 428 kts 310°
2026-05-08 13:53 48.12350 4.89029 34036 ft 428 kts 310°
2026-05-08 13:54 48.16307 4.82447 34037 ft 427 kts 309°
2026-05-08 13:54 48.20254 4.75864 34037 ft 426 kts 310°
2026-05-08 13:55 48.24191 4.69281 34037 ft 425 kts 309°
2026-05-08 13:56 48.30082 4.59399 34037 ft 425 kts 309°
2026-05-08 13:56 48.34008 4.52790 34037 ft 424 kts 309°
2026-05-08 13:57 48.37928 4.46171 34037 ft 424 kts 309°
2026-05-08 13:57 48.41830 4.39565 34037 ft 423 kts 309°
2026-05-08 13:58 48.45722 4.32958 34038 ft 423 kts 309°
2026-05-08 13:58 48.49605 4.26351 34037 ft 423 kts 309°
2026-05-08 13:59 48.53490 4.19723 34037 ft 423 kts 309°
2026-05-08 13:59 48.57371 4.13084 34036 ft 423 kts 309°
2026-05-08 14:00 48.61241 4.06449 34037 ft 424 kts 309°
2026-05-08 14:00 48.65106 3.99803 34036 ft 424 kts 309°
2026-05-08 14:01 48.68991 3.93103 34037 ft 422 kts 309°
2026-05-08 14:01 48.72897 3.86522 34036 ft 422 kts 312°
2026-05-08 14:02 48.77053 3.80278 34036 ft 423 kts 313°
2026-05-08 14:02 48.81259 3.74033 34036 ft 424 kts 313°
2026-05-08 14:03 48.85460 3.67774 34036 ft 424 kts 313°
2026-05-08 14:03 48.89642 3.61523 34036 ft 425 kts 313°
2026-05-08 14:04 48.93841 3.55229 34036 ft 425 kts 313°
2026-05-08 14:04 48.98038 3.48920 34036 ft 426 kts 314°
2026-05-08 14:05 49.02224 3.42611 34036 ft 426 kts 314°
2026-05-08 14:05 49.06421 3.36272 34035 ft 426 kts 314°
2026-05-08 14:06 49.10629 3.29898 34037 ft 426 kts 313°
2026-05-08 14:06 49.14807 3.23555 34037 ft 426 kts 313°
2026-05-08 14:07 49.19002 3.17171 34037 ft 426 kts 313°
2026-05-08 14:07 49.23180 3.10796 34037 ft 426 kts 313°
2026-05-08 14:08 49.27348 3.04419 34038 ft 425 kts 313°
2026-05-08 14:08 49.31509 2.98037 34042 ft 425 kts 313°
2026-05-08 14:09 49.35696 2.91598 34048 ft 425 kts 313°
2026-05-08 14:09 49.39847 2.85197 34055 ft 425 kts 313°
2026-05-08 14:10 49.43994 2.78789 34060 ft 425 kts 313°
2026-05-08 14:10 49.48164 2.72328 34062 ft 425 kts 313°
2026-05-08 14:11 49.52288 2.65917 34063 ft 425 kts 314°
2026-05-08 14:11 49.56425 2.59472 34063 ft 424 kts 314°
2026-05-08 14:12 49.60542 2.52951 34063 ft 425 kts 311°
2026-05-08 14:12 49.64374 2.46127 34063 ft 424 kts 310°
2026-05-08 14:13 49.68196 2.39167 34062 ft 424 kts 310°
2026-05-08 14:13 49.71992 2.32243 34063 ft 425 kts 309°
2026-05-08 14:14 49.75802 2.25282 34063 ft 425 kts 309°
2026-05-08 14:14 49.79600 2.18325 34063 ft 425 kts 309°
2026-05-08 14:15 49.83422 2.11307 34063 ft 426 kts 309°
2026-05-08 14:15 49.87194 2.04361 34062 ft 425 kts 309°
2026-05-08 14:16 49.91001 1.97334 33884 ft 428 kts 309°
2026-05-08 14:16 49.92922 1.93779 33631 ft 429 kts 309°
2026-05-08 14:16 49.94836 1.90235 33368 ft 430 kts 309°
2026-05-08 14:16 49.96744 1.86694 32959 ft 432 kts 309°
2026-05-08 14:17 49.98681 1.83096 32386 ft 434 kts 309°
2026-05-08 14:17 50.00598 1.79530 31720 ft 435 kts 309°
2026-05-08 14:17 50.02513 1.75959 31003 ft 436 kts 309°
2026-05-08 14:17 50.04462 1.72329 30240 ft 437 kts 309°
2026-05-08 14:18 50.06494 1.68779 29452 ft 440 kts 313°
2026-05-08 14:18 50.08632 1.65436 28766 ft 439 kts 315°
2026-05-08 14:18 50.10873 1.62271 28199 ft 436 kts 317°
2026-05-08 14:18 50.13147 1.59174 27659 ft 432 kts 318°
2026-05-08 14:19 50.15380 1.56152 27136 ft 428 kts 318°
2026-05-08 14:19 50.17633 1.53101 26607 ft 424 kts 318°
2026-05-08 14:19 50.19822 1.50127 26091 ft 420 kts 318°
2026-05-08 14:19 50.22019 1.47137 25573 ft 416 kts 318°
2026-05-08 14:20 50.24157 1.44222 25067 ft 413 kts 318°
2026-05-08 14:20 50.26317 1.41272 24555 ft 409 kts 317°
2026-05-08 14:20 50.28447 1.38359 24048 ft 406 kts 317°
2026-05-08 14:20 50.30555 1.35470 23549 ft 403 kts 317°
2026-05-08 14:21 50.32623 1.32632 23060 ft 400 kts 317°
2026-05-08 14:21 50.34703 1.29774 22569 ft 397 kts 317°
2026-05-08 14:21 50.36787 1.26909 22072 ft 395 kts 317°
2026-05-08 14:21 50.38806 1.24130 21591 ft 392 kts 317°
2026-05-08 14:22 50.40855 1.21310 21098 ft 390 kts 317°
2026-05-08 14:22 50.42885 1.18505 20608 ft 388 kts 317°
2026-05-08 14:22 50.44900 1.15719 20117 ft 386 kts 317°
2026-05-08 14:22 50.46876 1.12986 19634 ft 384 kts 317°
2026-05-08 14:23 50.48890 1.10196 19129 ft 382 kts 317°
2026-05-08 14:23 50.50863 1.07431 18625 ft 380 kts 315°
2026-05-08 14:23 50.52714 1.04552 18129 ft 377 kts 312°
2026-05-08 14:23 50.54493 1.01587 17641 ft 375 kts 311°
2026-05-08 14:24 50.56254 0.98606 17162 ft 372 kts 311°
2026-05-08 14:24 50.58003 0.95642 16858 ft 364 kts 311°
2026-05-08 14:24 50.59706 0.92761 16671 ft 353 kts 311°
2026-05-08 14:24 50.61335 0.90005 16485 ft 344 kts 311°
2026-05-08 14:25 50.62951 0.87269 16305 ft 334 kts 311°
2026-05-08 14:25 50.64501 0.84642 16136 ft 324 kts 311°
2026-05-08 14:25 50.65997 0.82104 16100 ft 317 kts 311°
2026-05-08 14:25 50.67500 0.79511 16097 ft 317 kts 309°
2026-05-08 14:26 50.68882 0.76880 16097 ft 316 kts 307°
2026-05-08 14:26 50.70271 0.74155 16096 ft 316 kts 307°
2026-05-08 14:26 50.71639 0.71465 16096 ft 316 kts 307°
2026-05-08 14:26 50.73009 0.68770 16096 ft 316 kts 307°
2026-05-08 14:27 50.74388 0.66061 16095 ft 316 kts 307°
2026-05-08 14:27 50.75765 0.63356 16095 ft 316 kts 307°
2026-05-08 14:27 50.77139 0.60656 16095 ft 316 kts 307°
2026-05-08 14:27 50.78506 0.57965 15946 ft 310 kts 307°
2026-05-08 14:28 50.79834 0.55351 15400 ft 309 kts 307°
2026-05-08 14:28 50.81187 0.52682 14794 ft 310 kts 307°
2026-05-08 14:28 50.82526 0.50042 14265 ft 306 kts 307°
2026-05-08 14:28 50.83826 0.47477 13690 ft 303 kts 307°
2026-05-08 14:29 50.85136 0.44889 13012 ft 300 kts 307°
2026-05-08 14:29 50.86430 0.42332 12333 ft 298 kts 307°
2026-05-08 14:29 50.87692 0.39745 11668 ft 294 kts 301°
2026-05-08 14:29 50.88614 0.36906 11008 ft 290 kts 292°
2026-05-08 14:30 50.89383 0.33961 10336 ft 288 kts 290°
2026-05-08 14:30 50.90101 0.31056 9679 ft 287 kts 290°
2026-05-08 14:30 50.90817 0.28095 9008 ft 285 kts 290°
2026-05-08 14:30 50.91512 0.25182 8376 ft 287 kts 290°
2026-05-08 14:31 50.92202 0.22265 8047 ft 280 kts 290°
2026-05-08 14:31 50.92878 0.19402 7812 ft 276 kts 290°
2026-05-08 14:31 50.93549 0.16551 7611 ft 276 kts 290°
2026-05-08 14:32 50.94896 0.10822 7247 ft 275 kts 290°
2026-05-08 14:32 50.95554 0.08020 7108 ft 274 kts 290°
2026-05-08 14:32 50.96225 0.05160 7102 ft 275 kts 290°
2026-05-08 14:32 50.96894 0.02307 7095 ft 275 kts 290°
2026-05-08 14:33 50.97563 -0.00546 7093 ft 276 kts 290°
2026-05-08 14:33 50.98248 -0.03382 7093 ft 281 kts 289°
2026-05-08 14:33 50.98986 -0.06270 7096 ft 279 kts 290°
2026-05-08 14:33 50.99730 -0.09110 7094 ft 278 kts 290°
2026-05-08 14:34 51.00463 -0.11943 7092 ft 277 kts 288°
2026-05-08 14:34 51.01098 -0.14824 7038 ft 273 kts 285°
2026-05-08 14:34 51.01686 -0.17677 6695 ft 274 kts 285°
2026-05-08 14:34 51.02271 -0.20559 6326 ft 274 kts 285°
2026-05-08 14:35 51.02847 -0.23408 5992 ft 273 kts 285°
2026-05-08 14:35 51.03427 -0.26285 5610 ft 272 kts 285°
2026-05-08 14:35 51.03995 -0.29132 5279 ft 268 kts 285°
2026-05-08 14:35 51.04540 -0.31880 5103 ft 258 kts 285°
2026-05-08 14:36 51.05067 -0.34539 4933 ft 249 kts 285°
2026-05-08 14:36 51.05577 -0.37131 4765 ft 241 kts 285°
2026-05-08 14:36 51.06067 -0.39629 4595 ft 231 kts 285°
2026-05-08 14:36 51.06526 -0.41969 4482 ft 215 kts 286°
2026-05-08 14:37 51.07224 -0.43993 4224 ft 208 kts 315°
2026-05-08 14:37 51.08462 -0.45015 3865 ft 201 kts 354°
2026-05-08 14:37 51.09786 -0.44689 3405 ft 193 kts 30°
2026-05-08 14:37 51.10919 -0.43574 3029 ft 187 kts 47°
2026-05-08 14:38 51.11586 -0.41897 2799 ft 180 kts 73°
2026-05-08 14:38 51.11940 -0.39988 2590 ft 178 kts 79°
2026-05-08 14:38 51.12210 -0.38134 2365 ft 167 kts 81°
2026-05-08 14:38 51.12445 -0.36390 2184 ft 158 kts 81°
2026-05-08 14:39 51.12671 -0.34691 1978 ft 157 kts 81°
2026-05-08 14:39 51.12902 -0.32974 1764 ft 157 kts 80°
2026-05-08 14:39 51.13135 -0.31260 1549 ft 159 kts 79°
2026-05-08 14:39 51.13364 -0.29600 1324 ft 147 kts 79°
2026-05-08 14:40 51.13576 -0.28050 1126 ft 143 kts 79°
2026-05-08 14:40 51.13786 -0.26511 946 ft 142 kts 79°
2026-05-08 14:40 51.13996 -0.24980 764 ft 142 kts 79°
2026-05-08 14:40 51.14206 -0.23452 577 ft 141 kts 79°
2026-05-08 14:41 51.14418 -0.21910 383 ft 141 kts 79°
2026-05-08 14:41 51.14626 -0.20393 209 ft 140 kts 79°
2026-05-08 14:41 51.14808 -0.19060 198 ft 92 kts 78°
2026-05-08 14:41 51.14896 -0.18422 198 ft 43 kts 77°
2026-05-08 14:42 51.14948 -0.18034 198 ft 28 kts 77°
2026-05-08 14:42 51.14983 -0.17796 198 ft 9 kts 72°
2026-05-08 14:42 51.15019 -0.17743 198 ft 7 kts
2026-05-08 14:42 51.15075 -0.17751 198 ft 9 kts 352°
2026-05-08 14:43 51.15160 -0.17768 198 ft 12 kts 353°
2026-05-08 14:43 51.15197 -0.17775 198 ft 3 kts 353°
2026-05-08 14:43 51.15211 -0.17777 198 ft 2 kts 353°
2026-05-08 14:43 51.15231 -0.17781 198 ft 2 kts 353°
2026-05-08 14:44 51.15233 -0.17781 198 ft 0 kts 353°
2026-05-08 14:44 51.15239 -0.17782 198 ft 1 kts 354°
2026-05-08 14:44 51.15247 -0.17777 198 ft 1 kts 49°
2026-05-08 14:44 51.15257 -0.17731 198 ft 7 kts 82°
2026-05-08 14:45 51.15268 -0.17644 198 ft 8 kts 76°
2026-05-08 14:45 51.15284 -0.17534 198 ft 11 kts 79°
2026-05-08 14:45 51.15299 -0.17406 198 ft 12 kts 81°
2026-05-08 14:45 51.15313 -0.17271 198 ft 12 kts 78°
2026-05-08 14:46 51.15332 -0.17127 198 ft 15 kts 78°
2026-05-08 14:46 51.15357 -0.16939 198 ft 18 kts 78°
2026-05-08 14:46 51.15384 -0.16742 198 ft 17 kts 78°
2026-05-08 14:46 51.15407 -0.16571 198 ft 12 kts 78°
2026-05-08 14:47 51.15408 -0.16512 198 ft 5 kts 125°
2026-05-08 14:47 51.15396 -0.16458 198 ft 5 kts 85°
2026-05-08 14:47 51.15402 -0.16416 198 ft 0 kts 76°
2026-05-08 14:47 51.15403 -0.16412 198 ft 0 kts 76°